Kuchera_Ratio
0.0 0.0 0.0 0.0 0.0 0.0 0.0 0.0 0.0 0.0 0.0 0.0 0.0 0.0 0.0 0.0 0.0 0.0 0.0 0.0 0.0 0.0 0.0 0.0 0.0 0.0 0.0 0.0 0.0 0.0 0.0 0.0 0.0 0.0 0.0 0.0 0.0 0.0
0.0 0.0 0.0 0.0 0.0 0.0 0.0 0.0 0.0 0.0 0.0 0.0 0.0 0.0 0.0 0.0 0.0 0.0 0.0 0.0 0.0 0.0 0.0 0.0 0.0 0.0 0.0 0.0 0.0 0.0 0.0 0.0 0.0 0.0 0.0 0.0 0.0 0.0
0.0 0.0 0.0 0.0 0.0 0.0 0.0 0.0 0.0 0.0 0.0 0.0 0.0 0.0 0.0 0.0 0.0 0.0 0.0 0.0 0.0 0.0 0.0 0.0 0.0 0.0 0.0 0.0 0.0 0.0 0.0 0.0 0.0 0.0 0.0 0.0 0.0 0.0
0.0 0.0 0.0 0.0 0.0 0.0 0.0 0.0 0.0 0.0 0.0 0.0 0.0 0.0 0.0 0.0 0.0 0.0 0.0 0.0 0.0 0.0 0.0 0.0 0.0 0.0 0.0 0.0 0.0 0.0 0.0 0.0 0.0 0.0 0.0 0.0 0.0 0.0
0.0 0.0 0.0 0.0 0.0 0.0 0.0 0.0 0.0 0.0 0.0 0.0 0.0 0.0 0.0 0.0 0.0 0.0 0.0 0.0 0.0 0.0 0.0 0.0 0.0 0.0 0.0 0.0 0.0 0.0 0.0 0.0 0.0 0.0 0.0 0.0 0.0 0.0
0.0 0.0 0.0 0.0 0.0 0.0 0.0 0.0 0.0 0.0 0.0 0.0 0.0 0.0 0.0 0.0 0.0 0.0 0.0 0.0 0.0 0.0 0.0 0.0 0.0 0.0 0.0 0.0 0.0 0.0 0.0 0.0 0.0 0.0 0.0 0.0 0.0 0.0
2.8 0.6 0.0 0.0 0.0 0.0 0.0 0.0 0.1 1.9 1.6 1.6 2.5 1.1 0.0 0.0 0.0 0.0 0.0 0.0 0.0 0.0 0.0 0.0 0.0 0.0 0.0 0.0 0.0 0.0 0.0 0.0 0.0 0.0 0.0 0.0 0.0 0.0
5.3 3.5 1.8 0.0 0.0 0.0 0.0 0.0 0.0 1.8 3.7 3.8 3.9 3.1 2.9 0.1 0.0 0.0 0.0 0.0 0.0 0.0 0.0 0.0 0.0 0.0 0.0 0.0 0.0 0.0 0.0 0.0 0.0 0.0 0.0 0.0 0.0 0.0
5.3 5.1 3.2 0.0 0.0 1.6 0.0 0.0 0.0 0.0 0.0 1.3 5.8 3.6 3.1 0.0 1.3 2.4 2.2 1.5 0.0 0.0 0.0 0.0 0.0 0.0 0.0 0.0 0.0 0.0 0.0 0.0 0.0 0.0 0.0 0.0 0.0 0.0
6.4 6.1 5.6 4.3 2.8 0.0 1.6 2.9 4.2 4.2 3.2 0.2 3.0 3.0 2.7 1.9 2.0 1.6 1.9 1.6 0.6 0.0 0.0 0.0 0.0 0.0 0.0 0.0 0.0 0.0 0.0 0.0 0.0 0.0 0.0 0.0 0.0 0.0
5.2 5.0 4.0 4.3 0.0 0.0 0.7 4.2 3.7 4.2 0.0 0.0 0.0 0.0 0.0 0.0 0.0 2.6 6.8 5.4 5.5 2.5 0.0 0.0 0.0 0.0 0.0 0.0 0.0 0.0 0.0 0.0 0.0 0.0 0.0 0.0 0.0 0.0
7.7 5.9 1.0 1.4 0.0 0.0 2.6 5.1 9.0 8.3 7.1 5.8 5.7 5.2 3.0 4.2 0.0 4.2 5.6 7.2 6.0 5.0 0.5 3.6 0.6 0.5 0.1 0.0 0.0 0.0 0.0 0.0 0.0 0.0 0.0 0.0 0.0 0.0
7.3 7.8 5.8 1.0 0.0 0.0 0.0 3.9 5.6 2.2 3.0 6.4 7.9 8.1 7.7 7.6 7.4 5.1 3.2 5.5 7.6 7.2 1.3 2.6 4.4 3.1 1.6 0.0 0.0 0.0 0.0 0.0 0.0 0.0 0.0 0.0 0.0 0.0
8.8 7.3 6.8 1.5 0.3 0.0 0.6 0.0 0.0 0.0 4.6 8.1 10.5 10.8 10.4 8.7 7.8 7.5 7.4 6.3 6.3 6.5 3.0 3.7 6.4 4.2 4.4 3.6 1.8 0.0 0.0 0.0 0.0 0.0 0.0 0.0 0.0 0.0
6.4 5.0 2.0 2.2 1.9 3.1 2.7 1.1 0.7 6.5 9.6 10.2 10.4 11.4 9.4 7.5 8.1 8.5 8.7 8.2 8.3 5.8 2.0 5.0 5.6 4.6 3.5 3.7 4.3 1.1 0.0 0.0 0.0 0.0 0.0 0.0 0.0 0.0
6.7 8.8 5.0 2.8 3.0 4.1 6.0 7.6 9.2 8.9 9.3 10.1 10.0 10.4 10.1 10.7 9.9 9.1 10.8 11.2 12.0 9.7 5.3 3.9 4.9 4.9 5.5 3.3 1.7 3.4 0.6 1.5 1.2 0.0 0.0 0.0 0.0 0.0
5.0 9.8 11.2 12.4 12.5 12.2 11.3 10.9 10.9 11.8 11.9 10.4 10.8 10.6 11.2 11.7 12.3 11.1 12.1 12.2 12.2 10.4 8.1 5.2 6.1 5.6 4.6 5.0 5.8 2.8 3.8 3.8 2.1 0.9 2.1 2.6 1.9 0.6
9.3 13.1 13.3 13.0 13.0 12.6 12.5 12.6 12.6 11.4 12.4 12.4 12.4 13.1 13.2 13.4 13.2 12.7 12.9 12.1 12.5 11.3 9.5 6.8 6.9 8.2 8.7 7.1 1.8 3.7 4.0 3.0 3.9 2.5 1.8 3.4 4.6 2.8
13.7 14.0 13.8 13.6 13.3 12.9 12.8 13.1 13.4 12.6 12.6 12.6 12.9 12.4 13.3 13.7 12.5 13.6 14.0 14.5 13.8 12.2 9.7 7.5 8.5 9.2 11.1 11.6 7.8 0.7 5.0 4.1 4.6 4.3 2.9 2.6 3.8 4.7
13.2 13.7 14.2 13.7 13.6 13.8 13.3 13.0 13.0 13.0 13.5 13.3 12.8 12.8 13.0 14.0 14.2 14.5 15.0 14.6 13.6 12.7 10.5 9.2 8.1 9.0 10.3 9.8 8.3 8.3 4.8 5.1 5.4 5.0 5.2 6.8 5.3 0.2
13.3 13.7 13.5 13.8 14.1 14.0 13.9 14.6 14.6 14.2 13.1 12.8 13.2 13.4 12.8 14.1 14.1 14.3 14.1 10.6 10.3 12.8 13.0 12.1 7.3 2.6 7.0 8.5 11.7 12.4 9.7 4.7 3.0 5.3 6.2 7.4 9.6 9.7
13.3 13.8 13.6 13.7 14.1 14.7 15.2 15.3 14.7 13.5 13.9 14.4 14.2 13.5 12.6 14.0 14.3 14.5 14.1 13.8 13.6 13.4 12.7 8.6 7.1 8.5 9.2 10.2 10.4 13.0 11.9 10.0 6.2 3.0 2.7 3.0 7.2 11.8
13.7 13.7 13.8 13.8 14.0 14.4 14.6 15.3 15.6 15.5 15.2 15.2 14.4 13.6 13.5 13.7 13.8 14.0 14.4 14.3 14.3 13.4 12.8 12.2 9.6 8.9 9.9 9.9 9.9 12.6 12.2 11.3 10.3 10.2 9.6 5.0 5.5 2.2